Theta_e
322 322 326 330 327 333 340 345 342 341 343 343 346 346 344 343 344 347 349 347 342 323 328 336 340 336 335 335 332 332 330 331 329 328 327 327 326 326 326 327 329 332 334 333 323 316 315 317 318
325 324 325 328 330 338 339 339 341 339 342 343 343 343 343 343 341 347 346 343 330 323 325 334 339 338 335 334 331 331 330 330 329 327 326 326 326 326 328 330 333 331 319 315 317 318 318 318 319
320 326 324 319 322 335 336 339 339 338 341 341 342 343 341 342 342 347 344 334 325 323 323 329 337 336 334 331 331 330 330 329 328 327 326 326 326 328 330 331 323 315 317 318 318 319 321 323 325
326 326 323 320 325 325 339 335 338 341 341 341 341 341 340 339 341 343 342 331 326 323 323 324 328 330 330 330 330 329 328 328 327 327 326 327 328 329 327 318 316 318 319 320 321 321 323 327 328
325 325 316 319 319 337 339 338 339 339 341 340 342 342 340 341 343 346 342 333 330 327 326 325 326 327 329 329 329 328 327 327 326 326 327 328 328 324 317 317 318 320 320 321 321 322 327 329 330
324 318 314 316 324 338 339 339 337 336 341 341 341 342 342 340 341 346 344 336 332 332 331 330 329 329 328 328 327 327 326 326 326 327 328 327 323 319 317 318 320 321 323 327 328 329 331 331 330
322 316 318 317 317 332 337 337 336 341 341 342 340 343 342 340 343 345 342 334 333 331 329 331 330 329 328 327 326 325 326 326 328 328 326 322 319 317 319 322 323 328 332 331 331 332 333 332 330
323 315 318 317 317 322 338 339 337 339 341 340 339 345 340 340 344 345 343 334 332 335 329 327 326 326 326 325 325 326 327 328 327 324 320 319 317 319 324 328 331 331 333 333 333 333 333 332 331
322 315 316 318 320 333 339 338 337 338 340 338 335 343 341 340 345 345 344 345 346 340 334 327 325 324 324 325 326 327 328 326 321 318 317 317 319 326 327 330 331 331 332 334 333 332 333 332 332
318 313 317 317 321 332 337 338 337 339 340 340 338 342 342 341 343 344 345 346 347 338 337 329 327 327 327 327 328 327 324 320 318 317 322 322 328 329 329 329 331 330 331 334 334 333 333 332 332
317 317 319 319 320 324 336 338 339 338 336 340 340 343 341 341 341 342 342 344 339 338 338 328 328 328 328 328 325 322 320 318 317 321 329 332 333 331 330 330 332 332 332 333 334 333 332 332 331
319 319 319 320 320 327 335 337 338 338 336 339 339 341 339 340 339 340 339 343 341 338 337 330 330 331 324 322 323 326 320 318 318 321 326 329 330 330 331 332 333 334 334 334 333 331 330 330 329
317 318 320 321 320 321 332 337 337 337 336 335 341 342 337 339 338 338 338 340 339 338 336 335 335 333 331 336 335 334 329 322 324 325 325 328 329 329 331 333 334 334 334 332 328 326 326 327 328
320 320 320 323 322 321 335 335 336 337 337 335 342 342 338 337 339 339 341 339 339 338 337 338 337 337 335 335 336 336 333 332 332 332 331 331 331 331 331 331 331 328 325 324 325 326 326 326 323
321 320 318 321 320 329 335 336 335 336 335 336 338 339 339 339 339 336 336 336 335 336 338 339 338 338 336 337 337 335 334 332 332 332 332 332 333 332 333 333 330 330 330 329 328 326 324 320 313
320 317 319 319 320 326 324 318 334 337 336 337 337 338 339 338 339 338 337 337 335 335 337 338 338 338 337 339 337 336 335 333 332 332 333 334 334 335 335 334 333 333 330 327 325 322 316 309 307
315 319 321 320 320 320 318 319 318 334 336 335 336 337 338 337 339 340 340 339 339 336 336 337 338 339 338 339 337 335 336 334 332 333 334 335 335 334 334 334 333 330 326 324 318 312 309 307 310
320 320 319 320 319 318 319 318 319 327 334 335 336 337 336 337 338 339 337 334 335 336 336 337 338 339 338 338 334 334 334 334 336 337 336 335 334 334 334 333 331 328 325 316 314 310 306 308 312
320 320 319 320 319 319 318 315 316 331 334 335 336 336 338 338 338 335 334 334 334 335 335 336 339 338 337 335 335 337 337 337 337 336 335 334 335 335 332 330 329 327 317 314 312 309 306 305 310
321 321 320 319 319 318 318 319 325 330 333 334 334 335 337 339 338 335 333 332 333 334 334 337 339 339 339 339 338 338 338 338 336 335 335 337 334 332 329 327 325 318 314 313 312 309 306 307 310
320 320 319 320 320 320 319 319 339 339 341 333 339 337 338 340 338 336 334 334 334 335 338 339 339 340 340 339 338 338 338 338 337 338 337 335 332 330 327 325 320 315 313 312 311 309 306 310 310
320 319 320 321 321 320 319 321 323 341 341 339 342 341 340 340 339 338 336 335 335 336 337 341 339 341 341 340 339 341 340 339 340 338 333 330 329 325 322 318 315 311 311 312 310 307 308 309 310
320 320 320 321 321 320 321 319 316 337 343 341 338 340 339 339 339 339 337 335 335 335 336 336 339 341 342 342 342 340 336 334 331 329 328 327 323 319 315 312 309 310 311 310 306 306 308 307 309
321 322 319 317 317 320 320 319 319 330 340 339 338 339 339 338 338 338 337 334 335 335 337 341 341 342 341 336 330 329 330 329 328 327 325 321 315 310 308 308 310 310 306 304 305 306 307 308 308
320 318 319 320 320 320 319 320 320 322 326 339 339 338 340 338 336 335 334 333 333 335 340 336 332 330 328 327 327 329 329 328 325 321 315 311 311 309 306 304 302 303 305 307 308 308 308 307 307
319 317 319 322 321 319 320 323 323 332 332 339 338 334 338 338 338 336 333 333 338 338 330 328 328 327 327 327 328 328 325 320 315 314 317 312 307 304 302 302 304 306 307 308 308 307 307 307 306
321 320 318 319 319 321 320 325 335 335 340 340 338 338 340 343 343 343 341 339 331 328 327 327 327 327 328 327 325 322 319 318 320 316 308 306 304 302 302 302 303 305 306 307 306 305 303 302 302
320 319 321 317 321 322 320 327 335 336 337 334 334 336 338 341 341 338 333 330 327 327 327 327 327 328 326 323 321 320 320 318 313 307 306 306 304 301 303 303 304 305 305 305 303 303 303 303 303
318 319 319 317 318 320 320 320 319 333 335 335 336 335 338 338 337 333 331 329 328 327 327 328 328 326 324 322 319 319 318 312 308 307 306 306 305 304 304 304 304 305 305 304 305 304 304 305 304
317 318 318 320 320 321 320 320 321 331 333 335 334 335 338 338 333 331 330 329 328 327 326 327 327 326 322 320 316 317 313 311 308 306 306 307 307 306 306 306 305 305 306 305 305 305 305 305 305
Wind_Speed
11 8 5 3 3 5 3 3 2 6 5 12 9 2 8 1 2 4 16 18 19 24 24 24 23 20 19 17 16 15 15 13 12 10 9 8 8 7 7 7 7 7 7 8 8 10 12 13 13
10 6 5 2 4 4 6 3 1 2 6 10 15 5 2 2 4 17 22 17 20 22 22 23 24 21 19 17 16 15 14 12 11 9 9 8 7 7 6 6 6 6 7 10 12 13 13 13 11
8 7 3 4 3 3 4 1 3 4 12 13 7 3 4 3 8 28 18 21 24 21 20 21 21 19 18 17 16 14 13 11 10 8 7 6 6 6 5 5 5 8 10 11 11 11 10 9 8
6 2 4 4 2 2 2 5 7 3 4 13 17 5 7 12 21 16 19 21 21 20 18 18 19 18 18 16 14 12 11 9 8 7 6 6 5 4 4 6 9 9 9 8 7 6 6 7 8
5 2 4 2 4 1 3 8 9 2 6 13 13 6 6 13 7 17 17 18 17 18 18 18 18 17 16 14 13 12 10 8 7 6 5 4 4 4 7 8 9 8 6 4 3 4 6 7 8
1 2 4 1 4 1 3 8 6 2 11 7 9 5 2 6 9 16 12 16 17 15 16 16 16 15 14 13 12 11 9 8 7 6 5 4 5 6 7 7 6 4 3 3 4 4 4 7 8
4 4 3 3 3 4 4 5 5 4 6 3 6 2 3 12 15 14 12 16 17 15 13 14 14 14 14 13 12 11 9 8 6 5 5 6 6 7 7 5 3 2 2 3 4 6 7 9 11
3 5 2 4 4 5 1 4 4 5 4 11 6 6 5 18 19 17 16 18 16 14 13 14 15 15 15 14 13 11 9 8 6 7 7 7 8 8 8 4 1 1 3 6 8 10 11 14 16
5 4 3 4 5 2 8 3 10 1 5 6 7 13 14 17 24 21 21 22 19 16 14 15 14 14 14 13 12 10 10 10 10 10 9 9 8 7 8 4 4 5 6 10 13 15 15 17 19
5 4 7 8 7 4 12 9 17 4 7 8 21 16 21 27 29 27 26 25 21 18 13 14 14 13 13 13 12 11 11 10 10 11 10 11 9 10 10 11 10 11 13 15 17 17 19 21 23
6 6 4 4 11 8 17 13 16 8 8 23 34 25 31 33 31 30 26 25 20 18 15 16 15 14 13 12 11 11 11 11 12 13 11 11 12 13 14 15 15 17 18 18 18 19 22 25 28
2 13 12 9 5 9 15 21 10 23 16 29 17 30 34 38 38 33 28 31 28 22 18 18 18 14 14 12 10 9 11 12 12 14 13 13 14 14 14 16 17 17 18 20 22 24 27 29 30
5 5 8 16 17 15 21 28 13 34 37 15 21 32 37 39 39 34 29 28 27 25 22 22 21 18 18 16 13 11 10 12 13 15 16 15 15 16 18 18 19 21 23 25 27 29 30 32 34
3 12 18 11 20 6 20 10 14 34 36 23 30 34 37 39 35 33 34 30 31 27 24 24 24 21 20 17 16 13 13 15 16 17 17 17 17 18 18 19 21 23 24 26 28 31 33 34 34
5 5 8 7 4 6 14 3 16 26 33 27 36 29 31 35 33 36 33 33 33 33 28 28 26 23 22 20 19 17 16 17 20 19 20 20 19 20 19 16 18 26 31 31 29 27 29 31 30
4 4 3 6 3 7 9 8 14 29 29 31 36 23 31 30 36 37 35 29 35 33 33 31 28 27 23 23 21 20 19 19 21 22 22 20 20 20 18 19 26 29 29 26 27 28 28 28 27
7 2 1 8 3 5 6 11 5 29 38 30 26 26 30 31 35 28 32 30 35 34 33 33 32 30 26 24 24 24 24 23 22 22 20 20 17 15 21 26 26 28 24 25 25 24 27 26 23
2 3 3 4 7 9 14 16 10 28 34 27 22 24 27 40 31 25 18 23 30 34 33 33 35 31 25 24 23 22 20 20 20 20 19 16 16 22 22 25 26 24 25 22 22 25 24 22 21
1 1 3 11 10 4 8 11 10 5 15 17 26 28 30 33 27 29 26 28 28 30 28 28 32 27 25 25 23 20 22 21 21 20 16 18 20 20 19 22 23 27 22 21 24 26 26 23 20
3 5 9 10 8 4 9 8 4 6 11 30 28 34 32 31 34 34 32 31 27 23 21 25 27 27 26 23 16 14 17 19 18 15 14 17 18 19 20 20 22 21 20 22 24 25 24 22 18
3 4 7 7 7 4 5 6 6 5 5 11 12 27 28 36 43 36 31 28 24 20 15 15 21 25 26 25 19 17 16 16 14 16 16 17 19 20 21 22 22 22 24 25 25 25 21 20 17
6 8 10 6 2 2 2 4 5 4 2 2 5 15 18 25 35 35 32 26 21 17 15 16 18 21 24 25 20 19 17 18 20 16 16 17 19 19 21 21 22 25 26 26 25 23 17 17 18
11 6 8 7 4 3 2 3 6 4 5 6 8 12 20 29 36 32 28 23 17 14 14 15 19 18 15 13 15 14 11 10 11 13 15 17 17 18 19 22 25 24 25 26 24 18 14 15 16
7 3 3 4 2 2 4 5 4 6 9 5 6 17 20 24 27 26 26 22 18 15 14 11 9 10 9 8 7 7 7 8 11 13 14 17 18 20 23 23 23 24 22 18 14 14 13 15 18
4 5 3 4 4 5 4 3 8 3 8 14 19 27 22 21 22 25 26 23 21 20 14 11 9 9 8 7 6 6 7 8 10 12 15 18 21 22 21 20 18 15 13 11 11 12 14 17 19
6 8 5 6 4 6 4 5 5 6 18 16 17 20 24 23 23 24 24 23 21 18 13 13 12 10 9 8 8 6 5 7 12 16 19 18 16 17 15 14 13 13 13 13 12 12 15 19 23
2 4 5 5 2 2 4 3 2 6 10 16 20 24 26 26 26 25 24 23 21 16 14 13 12 11 9 6 5 5 8 12 14 15 13 14 14 13 13 13 13 13 14 14 16 17 19 20 22
6 5 2 3 4 4 4 3 5 4 7 8 15 24 29 29 27 26 24 21 18 16 15 13 10 7 7 7 8 10 10 9 11 10 11 12 12 13 11 11 11 11 11 12 15 15 18 19 20
1 1 2 4 5 6 3 6 8 12 15 19 21 25 35 35 31 29 26 21 17 16 16 15 12 11 11 10 8 7 7 9 9 10 10 11 12 10 10 12 11 11 11 11 15 19 20 22 23
6 8 7 4 6 3 4 7 4 13 19 22 22 31 38 38 35 32 27 23 20 18 17 16 16 14 11 7 6 7 7 7 9 9 9 8 10 9 11 13 14 14 12 13 16 19 21 25 25
Wind_Direction
356 356 321 317 44 58 320 327 238 348 4 351 32 165 158 102 152 210 144 156 166 169 167 166 169 171 174 171 166 162 157 154 150 145 135 128 122 114 106 99 93 86 83 79 77 78 79 75 68
359 341 350 38 77 35 300 180 172 314 3 353 348 344 4 111 135 142 150 160 166 166 168 168 171 175 178 177 173 167 164 162 155 149 143 138 127 117 106 93 86 81 80 82 81 79 76 72 64
330 345 19 87 101 165 230 239 211 303 54 43 3 14 349 153 146 151 153 158 160 163 165 168 172 176 180 180 177 172 170 167 160 154 145 134 125 117 107 98 91 91 90 89 85 80 74 65 49
348 19 55 83 258 251 223 221 212 183 140 78 23 42 343 336 139 155 156 158 159 157 163 166 171 177 180 181 179 176 175 173 166 156 150 145 137 125 114 107 102 99 93 86 80 72 59 46 25
1 57 52 21 289 198 248 227 179 9 85 39 78 356 59 140 152 141 149 159 159 161 166 168 171 177 181 183 182 183 182 179 174 168 161 152 146 136 124 115 108 101 91 74 46 26 30 18 12
37 73 59 310 272 223 220 250 309 335 67 27 67 24 43 227 180 147 146 159 167 173 172 175 175 179 183 186 189 189 187 186 185 177 171 167 157 140 128 119 114 108 74 29 9 4 352 346 335
134 88 200 189 262 301 229 169 208 122 185 39 111 109 108 164 174 154 144 156 169 172 178 183 184 186 187 191 192 193 193 191 191 186 179 174 164 147 138 135 137 98 53 357 328 327 313 296 304
168 99 181 208 199 265 255 130 150 126 260 175 211 130 148 177 173 174 166 162 168 174 183 184 190 193 192 191 193 193 193 194 193 193 188 183 174 161 158 145 129 241 278 305 302 292 282 284 295
166 67 244 217 178 185 165 146 165 203 181 194 209 169 163 180 180 191 186 178 185 189 184 188 191 193 192 193 194 193 195 196 198 194 194 189 183 176 178 197 239 262 268 269 274 277 282 283 288
139 138 226 191 161 174 189 176 167 197 189 209 207 216 221 193 190 199 199 192 197 193 192 194 192 196 197 197 198 199 200 203 202 197 200 197 195 198 214 236 246 248 255 262 274 278 280 287 291
172 196 236 228 249 222 182 184 176 190 244 206 200 186 172 183 193 200 200 201 202 197 194 192 192 192 198 201 200 203 203 207 206 203 204 213 225 228 234 247 255 254 258 268 275 278 282 288 292
186 244 256 275 269 169 179 188 216 205 213 206 208 172 174 185 194 202 209 202 200 197 196 180 183 186 180 181 191 207 213 211 209 209 218 229 240 253 255 261 265 268 269 276 283 288 292 295 298
207 269 273 293 290 246 193 192 187 218 215 250 183 171 181 194 194 201 207 210 210 207 208 196 191 190 186 195 205 216 213 213 209 218 227 239 253 262 266 270 279 286 290 293 294 295 295 297 299
262 291 293 298 303 208 174 182 185 232 216 233 183 184 186 196 203 205 207 213 216 215 216 205 201 201 200 206 209 218 212 209 214 224 237 250 257 260 265 278 285 290 295 297 297 299 301 301 304
291 308 327 303 101 158 138 87 228 227 213 209 194 191 193 206 211 206 207 216 223 223 220 215 211 211 214 214 212 208 212 219 225 236 241 244 249 256 266 279 294 301 302 302 304 304 307 308 310
355 38 25 292 331 178 166 257 227 224 214 211 211 192 199 218 217 216 217 225 229 227 223 220 216 218 218 216 214 212 215 227 233 241 239 244 251 261 273 289 303 305 304 307 310 311 312 315 317
6 242 306 314 313 145 219 279 227 204 212 215 211 200 209 221 217 213 220 230 229 226 223 220 217 218 219 214 221 222 224 228 235 234 238 245 256 272 296 307 309 308 309 310 312 317 322 324 326
259 353 321 265 303 357 309 278 280 207 200 207 197 199 211 215 209 205 207 206 212 214 217 214 216 215 213 210 217 213 215 223 229 234 242 255 273 294 300 304 302 306 310 312 319 326 330 329 327
252 203 279 285 274 258 256 254 287 172 182 187 206 198 211 200 181 171 186 191 196 192 198 210 206 199 201 207 210 212 224 226 233 237 250 275 284 288 293 298 299 304 308 317 329 333 332 328 334
279 304 286 284 270 139 299 344 31 164 214 204 203 207 206 191 170 168 177 183 182 188 195 200 200 203 204 212 216 236 243 250 238 255 275 279 290 294 296 296 305 309 315 325 331 335 333 330 341
257 232 276 244 322 298 337 351 353 27 27 224 221 218 212 193 174 174 182 187 192 201 202 201 199 206 210 219 241 265 257 247 251 276 279 285 287 293 299 306 311 314 319 323 328 330 328 326 337
273 198 246 268 286 226 51 275 315 330 17 332 198 206 197 180 178 179 186 189 192 195 202 200 200 205 216 231 259 270 260 266 279 275 281 286 291 298 304 306 308 309 312 316 318 323 321 316 318
239 145 224 244 213 108 335 71 281 355 294 253 240 196 189 189 188 183 187 193 190 195 197 219 214 215 233 255 271 263 260 262 274 282 287 291 296 301 303 303 303 305 305 308 313 314 311 324 315
260 287 77 70 106 53 247 140 265 211 208 235 247 212 192 185 192 192 194 193 191 196 215 210 209 211 221 221 226 230 241 261 274 284 292 296 304 306 305 303 300 297 301 308 311 310 308 313 315
117 73 320 335 346 217 206 102 230 226 227 202 201 204 199 186 183 184 191 198 208 206 203 197 175 172 179 192 211 226 245 267 284 292 301 303 303 302 300 297 297 299 298 302 308 305 301 302 305
194 160 160 226 219 244 260 234 253 271 254 216 177 173 188 187 191 194 195 196 202 200 174 174 171 175 179 185 206 224 264 289 293 295 294 299 305 307 309 311 308 306 309 310 312 316 315 307 301
249 200 207 129 355 53 232 284 286 15 62 116 138 161 176 181 183 185 189 197 193 178 170 178 172 176 183 192 220 258 271 275 285 293 300 309 314 314 315 313 308 306 309 312 314 318 318 318 313
168 176 16 348 155 241 283 261 236 222 171 159 160 169 181 187 186 189 190 189 177 174 176 177 177 188 206 218 230 243 261 287 297 301 312 320 324 325 329 321 323 326 327 333 337 351 351 359 4
288 194 58 142 143 179 219 258 218 201 187 185 187 177 182 189 193 191 186 183 183 187 185 182 191 203 217 226 235 262 296 307 305 313 319 327 337 337 340 333 330 333 334 338 348 349 351 349 352
208 212 160 142 263 244 177 257 216 201 191 180 173 185 192 195 194 189 187 185 190 189 192 196 200 204 213 228 261 285 300 301 307 319 332 337 351 346 344 345 341 332 329 331 328 333 336 338 338